DW0501 Weather Reports


time (UTC)temp
F
wind
direction
speed
knots
gust
knots
rain 1hr
in
rain 24hr
in
rain mn
in
humidity
%
barometer
mb
20260507115052 53 312 0.0 0.0 0.00 0.00 0.16 98 1011.2
20260507114554 53 312 0.0 0.0 0.00 0.00 0.16 98 1011.2
20260507114052 53 312 0.0 0.0 0.00 0.00 0.16 98 1011.2
20260507113556 53 312 0.0 0.0 0.00 0.00 0.16 98 1011.3
20260507113051 53 312 0.0 0.0 0.00 0.00 0.16 98 1011.3
20260507112551 53 312 0.0 0.0 0.00 0.00 0.16 98 1011.3
20260507112054 53 312 0.0 0.0 0.00 0.00 0.16 98 1011.2
20260507111550 53 312 0.0 0.0 0.00 0.00 0.16 98 1011.2
20260507111049 53 312 0.0 0.0 0.00 0.00 0.16 98 1011.2
20260507110549 53 312 0.0 0.0 0.00 0.00 0.16 98 1011.0
20260507110049 53 312 0.0 0.0 0.00 0.00 0.16 98 1011.0
20260507105550 53 312 0.0 0.0 0.00 0.00 0.16 98 1011.0
20260507105051 53 312 0.0 0.0 0.00 0.00 0.16 98 1010.8
20260507104553 53 312 0.0 0.0 0.00 0.00 0.16 98 1010.8
20260507104046 53 312 0.0 0.0 0.00 0.00 0.16 98 1010.8
20260507103547 53 312 0.0 0.0 0.00 0.00 0.16 97 1010.8
20260507103046 53 312 0.0 0.0 0.00 0.00 0.16 97 1010.8
20260507102545 53 312 0.0 0.0 0.00 0.00 0.16 97 1010.8
20260507102046 53 312 0.0 0.0 0.00 0.00 0.16 97 1010.4
20260507101556 53 312 0.0 0.0 0.00 0.00 0.16 97 1010.4
20260507101045 53 312 0.0 0.0 0.00 0.00 0.16 97 1010.4
20260507100545 53 312 0.0 0.0 0.00 0.00 0.16 97 1010.4
20260507100054 53 312 0.0 0.0 0.00 0.00 0.16 97 1010.4
20260507095544 53 312 0.0 0.0 0.00 0.00 0.16 97 1010.4
20260507095043 53 312 0.0 0.0 0.00 0.00 0.16 97 1010.3
20260507094543 53 312 0.0 0.0 0.00 0.00 0.16 97 1010.3
20260507094043 53 312 0.0 0.0 0.00 0.00 0.16 97 1010.3
20260507093543 53 312 0.0 0.0 0.00 0.00 0.16 97 1010.4
20260507093043 53 312 0.0 0.0 0.00 0.00 0.16 97 1010.4
20260507092543 53 312 0.0 0.0 0.00 0.00 0.16 97 1010.4
20260507092043 53 312 0.0 0.0 0.00 0.00 0.16 97 1010.7
20260507091543 53 312 0.0 0.0 0.00 0.00 0.16 97 1010.7
20260507091043 53 312 0.0 0.0 0.00 0.00 0.16 97 1010.7
20260507090543 53 312 0.0 0.0 0.00 0.00 0.16 96 1010.3
20260507090047 53 312 0.0 0.0 0.00 0.00 0.16 97 1010.3
20260507085542 53 312 0.0 0.0 0.00 0.00 0.16 96 1010.3
20260507085041 53 312 0.0 0.0 0.00 0.00 0.16 96 1010.1
20260507084547 53 312 0.0 0.0 0.00 0.00 0.16 96 1010.1
20260507084041 53 312 0.0 0.0 0.00 0.00 0.16 96 1010.1
20260507083540 53 312 0.0 0.0 0.00 0.00 0.16 96 1009.9
20260507083057 53 312 0.0 0.0 0.00 0.00 0.16 96 1009.9
20260507082541 53 312 0.0 0.0 0.00 0.00 0.16 96 1009.9
20260507082039 53 312 0.0 0.0 0.00 0.00 0.16 96 1009.6
20260507081545 53 312 0.0 0.0 0.00 0.00 0.16 96 1009.6
20260507081041 53 312 0.0 0.0 0.00 0.00 0.16 96 1009.6
20260507080541 53 312 0.0 0.0 0.00 0.00 0.16 96 1009.6
20260507080037 53 312 0.0 0.0 0.00 0.00 0.16 96 1009.6
20260507075540 53 311 0.0 0.0 0.00 0.00 0.16 96 1009.6
20260507075037 53 309 0.0 0.0 0.00 0.00 0.16 96 1009.3
20260507074536 54 1 0.0 0.0 0.00 0.00 0.16 96 1009.3
20260507074035 54 1 0.0 0.0 0.00 0.00 0.16 96 1009.3
20260507073534 54 3 0.0 0.0 0.00 0.00 0.16 96 1009.3
20260507073044 55 0 0.0 0.0 0.00 0.00 0.16 96 1009.3
20260507072536 55 0 0.0 0.0 0.00 0.00 0.16 96 1009.3
20260507072036 55 359 0.0 0.0 0.00 0.00 0.16 96 1009.3
20260507071536 55 0 0.0 0.0 0.00 0.00 0.16 96 1009.3
20260507071032 55 0 0.0 0.0 0.00 0.00 0.16 96 1009.3
20260507070532 55 354 0.0 0.0 0.00 0.00 0.16 96 1009.3
20260507070038 55 3 0.0 0.0 0.00 0.00 0.16 95 1009.3
20260507065530 55 0 0.0 0.0 0.00 0.00 0.16 95 1009.3
20260507065030 55 357 0.0 0.0 0.00 0.00 0.16 95 1009.6
20260507064536 55 357 0.0 0.0 0.00 0.00 0.16 95 1009.6
20260507064031 55 3 0.0 0.0 0.00 0.00 0.15 95 1009.6
20260507063531 55 8 0.0 0.0 0.00 0.00 0.15 94 1009.0
20260507063031 56 357 0.9 0.0 0.00 0.00 0.15 94 1009.0
20260507062528 56 356 0.0 0.0 0.00 0.00 0.15 94 1009.0
20260507062028 56 332 0.0 0.0 0.00 0.00 0.15 94 1009.4
20260507061528 56 7 0.0 0.0 0.00 0.00 0.15 93 1009.4
20260507061030 56 356 0.0 0.0 0.00 0.00 0.15 93 1009.4
20260507060526 56 352 0.0 0.0 0.00 0.00 0.15 93 1009.4
20260507060024 57 359 0.0 0.0 0.00 0.00 0.15 92 1009.4
20260507055525 57 6 0.0 0.0 0.00 0.00 0.15 92 1009.4
20260507055025 57 27 0.0 0.0 0.00 0.00 0.15 91 1009.4
20260507054526 57 347 0.0 0.0 0.00 0.00 0.15 91 1009.4
20260507054023 57 352 0.0 0.0 0.00 0.00 0.15 91 1009.4
20260507053522 57 352 0.0 0.0 0.00 0.00 0.15 90 1009.3
20260507053022 58 312 0.0 0.0 0.00 0.00 0.15 89 1009.3
20260507052520 58 312 0.0 0.0 0.00 0.00 0.15 88 1009.3
20260507052022 58 311 0.0 0.0 0.00 0.00 0.13 88 1009.9
20260507051519 58 311 0.0 0.0 0.00 0.00 0.08 87 1009.9
20260507051018 59 311 0.0 0.0 0.00 0.00 0.04 86 1009.9
20260507050517 59 311 0.0 0.0 0.00 0.00 0.04 85 1009.4
20260507050020 59 353 0.0 0.0 0.00 0.00 0.02 84 1009.4
20260507045515 59 353 0.9 0.0 0.00 0.00 0.02 83 1009.4
20260507045014 60 357 0.9 0.0 0.00 0.00 0.00 82 1009.5
20260507044513 60 274 0.9 0.0 0.00 0.00 0.00 81 1009.5
20260507044011 60 304 1.7 0.0 0.00 0.00 0.00 81 1009.5
20260507043510 61 270 1.7 0.0 0.00 0.00 0.00 80 1009.4
20260507043010 61 0 1.7 0.0 0.00 0.00 0.00 79 1009.4
20260507042509 62 337 0.9 0.0 0.00 0.00 0.00 79 1009.4
20260507042008 62 292 0.9 0.0 0.00 0.00 0.00 78 1009.1
20260507041522 62 342 0.9 0.0 0.00 0.00 0.00 78 1009.1
20260507041008 62 282 0.0 0.0 0.00 0.00 0.00 78 1009.1
20260507040507 62 326 0.0 0.0 0.00 0.00 0.19 77 1008.8
20260507040006 62 295 0.0 0.0 0.00 0.00 0.19 77 1008.8
20260507035506 62 288 0.0 0.0 0.00 0.00 0.19 77 1008.8
20260507035006 62 265 0.0 0.0 0.00 0.00 0.19 77 1008.8
20260507034506 62 301 0.0 0.0 0.00 0.00 0.19 77 1008.8
20260507034005 62 353 0.0 0.0 0.00 0.00 0.19 77 1008.8
20260507033505 62 357 0.9 0.0 0.00 0.00 0.19 77 1008.9
20260507033005 63 357 0.0 0.0 0.00 0.00 0.19 77 1008.9
20260507032506 63 333 0.0 0.0 0.00 0.00 0.19 77 1008.9
20260507032006 63 359 0.9 0.0 0.00 0.00 0.19 77 1008.7
20260507031505 63 287 0.9 0.0 0.00 0.00 0.19 77 1008.7
20260507031009 63 295 0.9 0.0 0.00 0.00 0.19 77 1008.7
20260507030508 63 250 0.9 0.0 0.00 0.00 0.19 78 1008.8
20260507030005 63 0 0.9 0.0 0.00 0.00 0.19 78 1008.8
20260507025504 64 357 1.7 0.0 0.00 0.00 0.19 79 1008.8
20260507025004 64 291 1.7 0.0 0.00 0.00 0.19 80 1008.3
20260507024504 65 356 1.7 0.0 0.00 0.00 0.19 82 1008.3
20260507024003 65 294 0.9 0.0 0.00 0.00 0.19 83 1008.3
20260507023507 65 265 0.9 0.0 0.00 0.00 0.19 83 1008.1
20260507023004 66 306 0.9 0.0 0.00 0.00 0.19 83 1008.1
20260507022507 66 316 0.9 0.0 0.00 0.00 0.19 83 1008.1
20260507022005 66 285 0.9 0.0 0.00 0.00 0.19 83 1007.9
20260507021503 66 359 0.0 0.0 0.00 0.00 0.19 82 1007.9
20260507021003 66 306 0.0 0.0 0.00 0.00 0.19 82 1007.9
20260507020503 66 0 0.0 0.0 0.00 0.00 0.19 82 1008.0
20260507020003 66 11 0.0 0.0 0.00 0.00 0.19 82 1008.0
20260507015504 66 260 0.9 0.0 0.00 0.00 0.19 82 1008.0
20260507015059 66 260 0.9 0.0 0.00 0.00 0.19 82 1008.3
20260507014608 66 260 0.0 0.0 0.00 0.00 0.19 82 1008.3
20260507014059 66 280 0.0 0.0 0.00 0.00 0.19 83 1008.3
20260507013559 66 332 0.0 0.0 0.00 0.00 0.19 83 1008.1
20260507013059 67 359 0.0 0.0 0.00 0.00 0.19 84 1008.1
20260507012559 67 261 0.0 0.0 0.00 0.00 0.19 85 1008.1
20260507012058 67 339 0.0 0.0 0.00 0.00 0.19 85 1008.2
20260507011602 67 42 0.0 0.0 0.00 0.00 0.19 85 1008.2
20260507011058 67 44 0.0 0.0 0.00 0.00 0.19 85 1008.2
20260507010558 67 42 0.0 0.0 0.00 0.00 0.19 84 1007.9
20260507010057 67 44 0.0 0.0 0.00 0.00 0.19 84 1007.9
20260507005557 67 44 0.0 0.0 0.00 0.00 0.19 84 1007.9
20260507005056 67 44 0.0 0.0 0.00 0.00 0.19 84 1007.7
20260507004557 67 44 0.0 0.0 0.00 0.00 0.19 83 1007.7
20260507004057 67 44 0.0 0.0 0.00 0.00 0.19 83 1007.7
20260507003557 67 44 0.0 0.0 0.00 0.00 0.19 83 1007.6
20260507003056 67 44 0.0 0.0 0.00 0.00 0.19 83 1007.6
20260507002556 67 44 0.0 0.0 0.00 0.00 0.19 82 1007.6
20260507002100 68 44 0.0 0.0 0.00 0.00 0.19 82 1007.6
20260507001558 68 42 0.0 0.0 0.00 0.00 0.19 82 1007.6
20260507001056 68 42 0.0 0.0 0.00 0.00 0.19 82 1007.6
20260507000556 68 42 0.0 0.0 0.00 0.00 0.19 81 1007.2
20260507000056 68 44 0.0 0.0 0.00 0.00 0.19 81 1007.2
20260506235556 68 44 0.0 0.0 0.00 0.00 0.19 81 1007.2
20260506235057 68 42 0.0 0.0 0.00 0.00 0.19 81 1007.1
20260506234601 68 42 0.0 0.0 0.00 0.00 0.19 80 1007.1
20260506234057 69 44 0.0 0.0 0.00 0.00 0.19 80 1007.1
20260506233558 69 42 0.0 0.0 0.00 0.00 0.19 80 1007.0
20260506233058 69 44 0.0 0.0 0.00 0.00 0.19 80 1007.0
20260506232554 69 44 0.0 0.0 0.00 0.00 0.19 80 1007.0
20260506232054 69 44 0.0 0.0 0.00 0.00 0.19 80 1007.0
20260506231559 69 44 0.0 0.0 0.00 0.00 0.19 79 1007.0
20260506231056 69 232 0.0 0.0 0.00 0.00 0.19 79 1007.0
20260506230555 69 243 0.0 0.0 0.00 0.00 0.19 79 1007.0
20260506230058 69 243 0.0 0.0 0.00 0.00 0.19 79 1007.0
20260506225553 70 224 0.0 0.0 0.00 0.00 0.19 79 1007.0
20260506225053 70 224 0.0 0.0 0.00 0.00 0.19 79 1006.6
20260506224553 70 230 0.0 0.0 0.00 0.00 0.19 78 1006.6
20260506224053 70 326 0.0 0.0 0.00 0.00 0.19 78 1006.6
20260506223553 70 326 0.0 0.0 0.00 0.00 0.19 77 1006.8
20260506223057 70 326 0.0 0.0 0.00 0.00 0.19 77 1006.8
20260506222553 70 326 0.0 0.0 0.00 0.00 0.19 77 1006.8
20260506222053 70 326 0.0 0.0 0.00 0.00 0.19 77 1006.8
20260506221553 70 326 0.0 0.0 0.00 0.00 0.19 76 1006.8
20260506221052 70 326 0.0 0.0 0.00 0.00 0.19 76 1006.8
20260506220552 71 326 0.0 0.0 0.00 0.00 0.19 75 1006.8
20260506220055 71 326 0.0 0.0 0.00 0.00 0.19 75 1006.8
20260506215552 71 326 0.0 0.0 0.00 0.00 0.19 75 1006.8
20260506215051 71 326 0.0 0.0 0.00 0.00 0.19 75 1006.6
20260506214552 72 326 0.0 0.0 0.00 0.00 0.19 75 1006.6
20260506214052 72 302 0.0 0.0 0.00 0.00 0.19 74 1006.6
20260506213551 72 302 0.0 0.0 0.00 0.00 0.19 73 1006.5
20260506213104 72 302 0.0 0.0 0.00 0.00 0.19 73 1006.5
20260506212551 72 219 0.0 0.0 0.00 0.00 0.19 73 1006.5
20260506212051 72 219 0.0 0.0 0.00 0.00 0.19 74 1006.5
20260506211604 72 219 0.0 0.0 0.00 0.00 0.19 73 1006.5
20260506211051 72 219 0.0 0.0 0.00 0.00 0.19 75 1006.5
20260506210551 72 217 0.0 0.0 0.00 0.00 0.19 75 1006.5
20260506210050 71 216 0.0 0.0 0.00 0.00 0.19 75 1006.5
20260506205549 71 216 0.0 0.0 0.00 0.00 0.19 75 1006.5
20260506205050 71 216 0.0 0.0 0.00 0.00 0.19 75 1006.3
20260506204556 71 216 0.0 0.0 0.00 0.00 0.19 74 1006.3
20260506204049 71 217 0.0 0.0 0.00 0.00 0.19 74 1006.3
20260506203549 72 224 0.0 0.0 0.00 0.00 0.19 74 1006.4
20260506203052 72 243 0.0 0.0 0.00 0.00 0.19 73 1006.4
20260506202549 72 337 0.0 0.0 0.00 0.00 0.19 72 1006.4
20260506202052 73 114 0.0 0.0 0.00 0.00 0.19 72 1006.1
20260506201559 73 127 0.0 0.0 0.00 0.00 0.19 73 1006.1
20260506201049 73 140 0.0 0.0 0.00 0.00 0.19 73 1006.1
20260506200547 72 104 0.0 0.0 0.00 0.00 0.19 74 1006.3
20260506200048 72 250 0.0 0.0 0.00 0.00 0.19 75 1006.3
20260506195547 72 126 0.0 0.0 0.00 0.00 0.19 75 1006.3
20260506195045 72 195 0.0 0.0 0.00 0.00 0.19 75 1006.4
20260506194556 71 195 0.0 0.0 0.00 0.00 0.19 75 1006.4
20260506194046 71 199 0.0 0.0 0.00 0.00 0.19 76 1006.4
20260506193544 71 243 0.0 0.0 0.00 0.00 0.19 78 1006.4
20260506193045 71 196 0.0 0.0 0.00 0.00 0.19 78 1006.4
20260506192548 70 73 0.0 0.0 0.00 0.00 0.19 79 1006.4
20260506192044 70 110 0.0 0.0 0.00 0.00 0.19 80 1006.6
20260506191547 70 302 0.0 0.0 0.00 0.00 0.19 81 1006.6
20260506191046 69 302 0.0 0.0 0.00 0.00 0.19 80 1006.6
20260506190544 69 217 0.0 0.0 0.00 0.00 0.19 82 1006.8
20260506190043 69 126 0.0 0.0 0.00 0.00 0.19 84 1006.8
20260506185542 68 112 0.0 0.0 0.00 0.00 0.19 85 1006.8
20260506185045 68 116 0.0 0.0 0.00 0.00 0.19 86 1007.0
20260506184542 68 117 0.0 0.0 0.00 0.00 0.19 86 1007.0
20260506184042 67 116 0.0 0.0 0.00 0.00 0.19 87 1007.0
20260506183542 67 116 0.0 0.0 0.00 0.00 0.19 88 1007.1
20260506183056 67 181 0.0 0.0 0.00 0.00 0.19 89 1007.1
20260506182540 67 182 0.0 0.0 0.00 0.00 0.19 90 1007.1
20260506182044 66 182 0.0 0.0 0.00 0.00 0.19 91 1007.2
20260506181540 66 178 0.0 0.0 0.00 0.00 0.19 91 1007.2
20260506181040 66 124 0.0 0.0 0.00 0.00 0.19 92 1007.2
20260506180539 66 230 0.0 0.0 0.00 0.00 0.19 93 1007.3
20260506180041 65 232 0.0 0.0 0.00 0.00 0.19 93 1007.3
20260506175542 65 0 0.0 0.0 0.00 0.00 0.19 94 1007.3
20260506175038 65 268 0.0 0.0 0.00 0.00 0.19 95 1007.3
20260506174541 65 229 0.0 0.0 0.00 0.00 0.19 96 1007.3
20260506174038 65 220 0.0 0.0 0.00 0.00 0.19 96 1007.3
20260506173538 64 220 0.0 0.0 0.00 0.00 0.19 96 1007.4
20260506173043 64 164 0.0 0.0 0.00 0.00 0.19 97 1007.4
20260506172542 64 167 0.0 0.0 0.00 0.00 0.19 97 1007.4
20260506172040 64 195 0.0 0.0 0.00 0.00 0.19 97 1007.6
20260506171539 64 95 0.0 0.0 0.00 0.00 0.19 98 1007.6
20260506171040 64 65 0.0 0.0 0.00 0.00 0.19 97 1007.6
20260506170536 64 16 0.0 0.0 0.00 0.00 0.19 98 1007.6
20260506170043 63 226 0.0 0.0 0.00 0.00 0.19 98 1007.6
20260506165535 63 112 0.0 0.0 0.00 0.00 0.19 98 1007.6
20260506165037 63 104 0.0 0.0 0.00 0.00 0.19 98 1007.7
20260506164534 63 120 0.0 0.0 0.00 0.00 0.19 98 1007.7
20260506164035 63 83 0.0 0.0 0.00 0.00 0.19 98 1007.7
20260506163535 62 236 0.9 0.0 0.00 0.00 0.19 98 1007.7
20260506163034 62 120 0.0 0.0 0.00 0.00 0.19 98 1007.7
20260506162533 62 66 0.0 0.0 0.00 0.00 0.19 98 1007.7
20260506162038 62 93 0.9 0.0 0.00 0.00 0.19 98 1007.7
20260506161535 62 192 0.0 0.0 0.00 0.00 0.19 98 1007.7
20260506161033 62 357 0.0 0.0 0.00 0.00 0.19 98 1007.7
20260506160533 62 0 0.0 0.0 0.00 0.00 0.19 98 1007.7
20260506160035 62 147 0.0 0.0 0.00 0.00 0.19 98 1007.7
20260506155532 62 160 0.0 0.0 0.00 0.00 0.19 97 1007.7
20260506155031 62 169 0.0 0.0 0.00 0.00 0.19 97 1008.2
20260506154533 62 58 0.0 0.0 0.00 0.00 0.18 97 1008.2
20260506154031 62 202 0.0 0.0 0.00 0.00 0.18 97 1008.2
20260506153532 62 64 0.0 0.0 0.00 0.00 0.18 97 1008.0
20260506153031 62 64 0.0 0.0 0.00 0.00 0.18 97 1008.0
20260506152531 62 102 0.0 0.0 0.00 0.00 0.18 97 1008.0
20260506152033 62 103 0.0 0.0 0.00 0.00 0.17 96 1008.5
20260506151533 62 167 0.0 0.0 0.00 0.00 0.17 97 1008.5
20260506151030 62 167 0.0 0.0 0.00 0.00 0.17 96 1008.5
20260506150530 62 169 0.0 0.0 0.00 0.00 0.17 96 1008.8
20260506150029 62 169 0.0 0.0 0.00 0.00 0.17 95 1008.8
20260506145531 61 246 0.0 0.0 0.00 0.00 0.17 95 1008.8
20260506145029 62 76 0.0 0.0 0.00 0.00 0.17 95 1008.8
20260506144531 62 79 0.0 0.0 0.00 0.00 0.16 95 1008.8
20260506144030 62 80 0.0 0.0 0.00 0.00 0.16 94 1008.8
20260506143527 62 121 0.0 0.0 0.00 0.00 0.15 94 1008.7
20260506143032 62 121 0.0 0.0 0.00 0.00 0.15 93 1008.7
20260506142526 62 121 0.0 0.0 0.00 0.00 0.13 93 1008.7
20260506142029 62 121 0.0 0.0 0.00 0.00 0.12 92 1008.7
20260506141526 62 106 0.0 0.0 0.00 0.00 0.12 92 1008.7
20260506141029 62 93 0.0 0.0 0.00 0.00 0.11 92 1008.7
20260506140524 62 93 0.0 0.0 0.00 0.00 0.11 91 1008.8
20260506140024 62 284 0.0 0.0 0.00 0.00 0.09 91 1008.8
20260506135523 62 284 0.0 0.0 0.00 0.00 0.09 91 1008.8
20260506135022 63 285 0.0 0.0 0.00 0.00 0.08 90 1009.2
20260506134522 63 285 0.0 0.0 0.00 0.00 0.07 90 1009.2
20260506134122 63 285 0.0 0.0 0.00 0.00 0.06 89 1009.2
20260506133521 63 285 0.0 0.0 0.00 0.00 0.04 89 1009.1
20260506133020 63 264 0.0 0.0 0.00 0.00 0.03 88 1009.1
20260506132520 63 75 0.0 0.0 0.00 0.00 0.03 88 1009.1
20260506132022 63 69 0.0 0.0 0.00 0.00 0.03 87 1008.6
20260506131519 63 69 0.0 0.0 0.00 0.00 0.02 87 1008.6
20260506131018 63 69 0.0 0.0 0.00 0.00 0.02 86 1008.6
20260506130520 63 69 0.0 0.0 0.00 0.00 0.01 86 1008.4
20260506130017 64 69 0.0 0.0 0.00 0.00 0.01 85 1008.4
20260506125515 64 295 0.0 0.0 0.00 0.00 0.01 85 1008.4
20260506125015 64 215 0.0 0.0 0.00 0.00 0.01 84 1008.5
20260506124515 64 215 0.0 0.0 0.00 0.00 0.01 83 1008.5
20260506124014 64 158 0.0 0.0 0.00 0.00 0.01 82 1008.5
20260506123514 64 158 0.0 0.0 0.00 0.00 0.00 82 1008.7
20260506123014 64 158 0.0 0.0 0.00 0.00 0.00 81 1008.7
20260506122513 64 119 0.0 0.0 0.00 0.00 0.00 81 1008.7
20260506122014 64 117 0.0 0.0 0.00 0.00 0.00 80 1008.9
20260506121520 64 114 0.0 0.0 0.00 0.00 0.00 79 1008.9
20260506121012 65 145 0.0 0.0 0.00 0.00 0.00 79 1008.9
20260506120511 65 145 0.0 0.0 0.00 0.00 0.00 78 1008.7
20260506120011 65 137 0.0 0.0 0.00 0.00 0.00 77 1008.7
20260506115510 65 16 0.0 0.0 0.00 0.00 0.00 76 1008.7